User: anonymous   Login
Location: Iola
(37.9240°N, 95.4000°W)
Time: 21:24:28
(UTC-06:00)
Language:

Meteor 2-10 Rocket - Orbit

View from above orbital plane
View from above orbital plane
View from above satellite
View from above satellite

Ground track
Ground track

The orbit data is extracted from the following two-line orbital elements,

1 14453U 83109B   14326.58917010  .00000160  00000-0  60347-4 0  2865
2 14453 081.1659 329.4486 0104005 255.6336 243.3272 14.24538818614036
Epoch (UTC): 22 November 2014 14:08:24
Eccentricity: 0.0104005
inclination: 81.1659°
perigee height: 735 km
apogee height: 885 km
right ascension of ascending node: 329.4486°
argument of perigee: 255.6336°
revolutions per day: 14.24538818
mean anomaly at epoch: 243.3272°
orbit number at epoch: 61403

The dashed part of the orbit path shows where the satellite is in the earth's shadow,  

DLR